Time,TemperatureF,DewpointF,PressureIn,WindDirection,WindDirectionDegrees,WindSpeedMPH,WindSpeedGustMPH,Humidity,HourlyPrecipIn,Conditions,Clouds,dailyrainin,SoftwareType,DateUTC
2013-04-17 00:07:00,74.6,68.0,29.83,SSE,160,9.0,17.0,79,0.00,,,0.00,weatherlink.com 1.10,2013-04-17 05:07:00,
2013-04-17 00:22:00,74.2,68.0,29.83,SE,128,0.0,13.0,80,0.00,,,0.00,weatherlink.com 1.10,2013-04-17 05:22:00,
2013-04-17 00:37:00,73.9,68.0,29.84,SE,138,8.0,13.0,81,0.00,,,0.00,weatherlink.com 1.10,2013-04-17 05:37:00,
2013-04-17 00:52:00,73.9,68.0,29.84,SSE,148,0.0,12.0,82,0.00,,,0.00,weatherlink.com 1.10,2013-04-17 05:52:00,
2013-04-17 01:07:00,73.8,68.0,29.84,SE,124,1.0,11.0,83,0.00,,,0.00,weatherlink.com 1.10,2013-04-17 06:07:00,
2013-04-17 01:22:00,73.7,68.0,29.84,SE,146,0.0,13.0,82,0.00,,,0.00,weatherlink.com 1.10,2013-04-17 06:22:00,
2013-04-17 01:37:00,73.6,68.0,29.84,SSE,148,0.0,10.0,83,0.00,,,0.00,weatherlink.com 1.10,2013-04-17 06:37:00,
2013-04-17 01:52:00,73.6,68.0,29.84,SE,137,0.0,13.0,83,0.00,,,0.00,weatherlink.com 1.10,2013-04-17 06:52:00,
2013-04-17 02:07:00,73.9,69.0,29.83,SE,130,0.0,17.0,83,0.00,,,0.00,weatherlink.com 1.10,2013-04-17 07:07:00,
2013-04-17 02:22:00,73.8,68.0,29.83,SE,134,5.0,10.0,83,0.00,,,0.00,weatherlink.com 1.10,2013-04-17 07:22:00,
2013-04-17 02:37:00,73.7,68.0,29.82,SE,139,0.0,11.0,83,0.00,,,0.00,weatherlink.com 1.10,2013-04-17 07:37:00,
2013-04-17 02:52:00,73.7,68.0,29.82,SE,133,0.0,7.0,83,0.00,,,0.00,weatherlink.com 1.10,2013-04-17 07:52:00,
2013-04-17 03:07:00,73.9,69.0,29.82,SSE,151,0.0,11.0,84,0.00,,,0.00,weatherlink.com 1.10,2013-04-17 08:07:00,
2013-04-17 03:22:00,74.0,69.0,29.81,SE,146,6.0,13.0,85,0.00,,,0.00,weatherlink.com 1.10,2013-04-17 08:22:00,
2013-04-17 03:37:00,73.8,69.0,29.80,SE,144,4.0,13.0,85,0.00,,,0.00,weatherlink.com 1.10,2013-04-17 08:37:00,
2013-04-17 03:52:00,73.8,69.0,29.80,SSE,152,0.0,12.0,85,0.00,,,0.00,weatherlink.com 1.10,2013-04-17 08:52:00,
2013-04-17 04:07:00,73.9,70.0,29.80,South,172,0.0,10.0,86,0.00,,,0.00,weatherlink.com 1.10,2013-04-17 09:07:00,
2013-04-17 04:23:00,73.9,70.0,29.79,SSE,150,0.0,13.0,86,0.00,,,0.00,weatherlink.com 1.10,2013-04-17 09:23:00,
2013-04-17 04:38:00,73.9,70.0,29.79,SE,138,0.0,13.0,86,0.00,,,0.00,weatherlink.com 1.10,2013-04-17 09:38:00,
2013-04-17 04:53:00,73.9,70.0,29.79,SSE,157,0.0,11.0,87,0.00,,,0.00,weatherlink.com 1.10,2013-04-17 09:53:00,
2013-04-17 05:08:00,73.9,70.0,29.80,SSE,157,0.0,10.0,87,0.00,,,0.00,weatherlink.com 1.10,2013-04-17 10:08:00,
2013-04-17 05:23:00,74.0,70.0,29.79,SE,146,0.0,10.0,87,0.00,,,0.00,weatherlink.com 1.10,2013-04-17 10:23:00,
2013-04-17 05:38:00,74.0,70.0,29.79,SSE,155,0.0,9.0,87,0.00,,,0.00,weatherlink.com 1.10,2013-04-17 10:38:00,
2013-04-17 05:53:00,74.2,70.0,29.78,SE,134,0.0,10.0,87,0.00,,,0.00,weatherlink.com 1.10,2013-04-17 10:53:00,
2013-04-17 06:08:00,74.8,70.0,29.79,SSE,149,8.0,18.0,85,0.00,,,0.00,weatherlink.com 1.10,2013-04-17 11:08:00,
2013-04-17 06:23:00,75.1,70.0,29.78,SSE,165,0.0,16.0,84,0.00,,,0.00,weatherlink.com 1.10,2013-04-17 11:23:00,
2013-04-17 06:38:00,75.1,70.0,29.79,SSE,163,0.0,17.0,84,0.00,,,0.00,weatherlink.com 1.10,2013-04-17 11:38:00,
2013-04-17 06:53:00,75.1,70.0,29.79,SE,139,0.0,15.0,83,0.00,,,0.00,weatherlink.com 1.10,2013-04-17 11:53:00,
2013-04-17 07:08:00,74.9,69.0,29.79,SE,132,0.0,13.0,83,0.00,,,0.00,weatherlink.com 1.10,2013-04-17 12:08:00,
2013-04-17 07:23:00,74.8,69.0,29.79,SSE,161,12.0,17.0,83,0.00,,,0.00,weatherlink.com 1.10,2013-04-17 12:23:00,
2013-04-17 07:38:00,74.8,69.0,29.79,ESE,122,7.0,16.0,82,0.00,,,0.00,weatherlink.com 1.10,2013-04-17 12:38:00,
2013-04-17 07:53:00,74.7,69.0,29.80,SSE,148,9.0,19.0,81,0.00,,,0.00,weatherlink.com 1.10,2013-04-17 12:53:00,
2013-04-17 08:08:00,74.6,68.0,29.80,SE,140,11.0,14.0,81,0.00,,,0.00,weatherlink.com 1.10,2013-04-17 13:08:00,
2013-04-17 08:23:00,74.7,69.0,29.80,SSE,155,17.0,17.0,81,0.00,,,0.00,weatherlink.com 1.10,2013-04-17 13:23:00,
2013-04-17 08:38:00,74.7,69.0,29.80,SSE,149,8.0,19.0,81,0.00,,,0.00,weatherlink.com 1.10,2013-04-17 13:38:00,
2013-04-17 08:53:00,74.5,68.0,29.79,SSE,153,13.0,18.0,81,0.00,,,0.00,weatherlink.com 1.10,2013-04-17 13:53:00,
2013-04-17 09:08:00,74.7,68.0,29.79,South,176,1.0,20.0,80,0.00,,,0.00,weatherlink.com 1.10,2013-04-17 14:08:00,
2013-04-17 09:23:00,74.9,68.0,29.79,SSE,155,0.0,19.0,79,0.00,,,0.00,weatherlink.com 1.10,2013-04-17 14:23:00,
2013-04-17 09:38:00,75.2,68.0,29.78,SSE,165,12.0,21.0,78,0.00,,,0.00,weatherlink.com 1.10,2013-04-17 14:38:00,
2013-04-17 09:53:00,75.3,68.0,29.77,SE,141,0.0,22.0,78,0.00,,,0.00,weatherlink.com 1.10,2013-04-17 14:53:00,
2013-04-17 10:08:00,75.3,68.0,29.77,SE,145,9.0,15.0,78,0.00,,,0.00,weatherlink.com 1.10,2013-04-17 15:08:00,
2013-04-17 10:23:00,75.3,68.0,29.77,SSE,155,0.0,19.0,77,0.00,,,0.00,weatherlink.com 1.10,2013-04-17 15:23:00,
2013-04-17 10:38:00,75.3,68.0,29.77,SSE,161,9.0,13.0,77,0.00,,,0.00,weatherlink.com 1.10,2013-04-17 15:38:00,
2013-04-17 10:53:00,75.5,68.0,29.77,SSE,156,0.0,18.0,77,0.00,,,0.00,weatherlink.com 1.10,2013-04-17 15:53:00,
2013-04-17 11:08:00,75.8,67.0,29.76,SSE,158,3.0,20.0,75,0.00,,,0.00,weatherlink.com 1.10,2013-04-17 16:08:00,
2013-04-17 11:23:00,76.1,68.0,29.76,SSE,164,0.0,0.0,75,0.00,,,0.00,weatherlink.com 1.10,2013-04-17 16:23:00,
2013-04-17 11:38:00,76.2,68.0,29.76,SSE,159,0.0,0.0,76,0.00,,,0.00,weatherlink.com 1.10,2013-04-17 16:38:00,
2013-04-17 11:53:00,76.3,68.0,29.76,SSE,161,0.0,0.0,75,0.00,,,0.00,weatherlink.com 1.10,2013-04-17 16:53:00,
2013-04-17 12:08:00,76.3,68.0,29.76,South,171,0.0,0.0,76,0.00,,,0.00,weatherlink.com 1.10,2013-04-17 17:08:00,
2013-04-17 12:23:00,76.9,68.0,29.75,SSE,152,0.0,0.0,74,0.00,,,0.00,weatherlink.com 1.10,2013-04-17 17:23:00,
2013-04-17 12:38:00,77.5,69.0,29.75,South,176,0.0,0.0,74,0.00,,,0.00,weatherlink.com 1.10,2013-04-17 17:38:00,
2013-04-17 12:53:00,78.8,68.0,29.73,SSE,165,0.0,0.0,70,0.00,,,0.00,weatherlink.com 1.10,2013-04-17 17:53:00,
2013-04-17 13:08:00,79.6,68.0,29.72,SSE,163,0.0,0.0,68,0.00,,,0.00,weatherlink.com 1.10,2013-04-17 18:08:00,
2013-04-17 13:23:00,80.2,68.0,29.71,SSE,149,0.0,0.0,66,0.00,,,0.00,weatherlink.com 1.10,2013-04-17 18:23:00,
2013-04-17 13:38:00,80.6,68.0,29.70,SSE,150,0.0,0.0,65,0.00,,,0.00,weatherlink.com 1.10,2013-04-17 18:38:00,
2013-04-17 13:54:00,80.7,68.0,29.70,South,187,0.0,0.0,66,0.00,,,0.00,weatherlink.com 1.10,2013-04-17 18:54:00,
2013-04-17 14:09:00,81.0,68.0,29.69,SSE,165,0.0,0.0,65,0.00,,,0.00,weatherlink.com 1.10,2013-04-17 19:09:00,
2013-04-17 14:24:00,81.2,68.0,29.69,SSE,163,0.0,0.0,64,0.00,,,0.00,weatherlink.com 1.10,2013-04-17 19:24:00,
2013-04-17 14:39:00,81.5,68.0,29.69,South,174,0.0,0.0,64,0.00,,,0.00,weatherlink.com 1.10,2013-04-17 19:39:00,
2013-04-17 14:54:00,81.4,68.0,29.68,SSE,166,0.0,0.0,64,0.00,,,0.00,weatherlink.com 1.10,2013-04-17 19:54:00,
2013-04-17 15:09:00,81.8,68.0,29.67,SSE,156,0.0,0.0,64,0.00,,,0.00,weatherlink.com 1.10,2013-04-17 20:09:00,
2013-04-17 15:24:00,82.2,68.0,29.66,SSE,148,0.0,0.0,63,0.00,,,0.00,weatherlink.com 1.10,2013-04-17 20:24:00,
2013-04-17 15:39:00,82.0,69.0,29.66,SSE,156,0.0,0.0,64,0.00,,,0.00,weatherlink.com 1.10,2013-04-17 20:39:00,
2013-04-17 15:54:00,82.2,68.0,29.65,SSE,163,0.0,0.0,63,0.00,,,0.00,weatherlink.com 1.10,2013-04-17 20:54:00,
2013-04-17 16:09:00,82.3,69.0,29.64,SE,144,0.0,0.0,64,0.00,,,0.00,weatherlink.com 1.10,2013-04-17 21:09:00,
2013-04-17 16:24:00,82.5,69.0,29.64,South,169,0.0,0.0,63,0.00,,,0.00,weatherlink.com 1.10,2013-04-17 21:24:00,
2013-04-17 16:39:00,83.0,69.0,29.63,South,172,0.0,0.0,63,0.00,,,0.00,weatherlink.com 1.10,2013-04-17 21:39:00,
2013-04-17 16:54:00,83.7,69.0,29.62,SE,138,0.0,0.0,61,0.00,,,0.00,weatherlink.com 1.10,2013-04-17 21:54:00,
2013-04-17 17:09:00,83.4,68.0,29.61,SSE,162,0.0,0.0,61,0.00,,,0.00,weatherlink.com 1.10,2013-04-17 22:09:00,
2013-04-17 17:24:00,83.8,69.0,29.61,SE,134,0.0,0.0,61,0.00,,,0.00,weatherlink.com 1.10,2013-04-17 22:24:00,
2013-04-17 17:39:00,82.9,68.0,29.60,SE,125,0.0,0.0,61,0.00,,,0.00,weatherlink.com 1.10,2013-04-17 22:39:00,
2013-04-17 17:54:00,83.5,69.0,29.60,SSE,168,0.0,0.0,61,0.00,,,0.00,weatherlink.com 1.10,2013-04-17 22:54:00,
2013-04-17 18:09:00,83.6,68.0,29.59,SSE,149,0.0,0.0,59,0.00,,,0.00,weatherlink.com 1.10,2013-04-17 23:09:00,
2013-04-17 18:24:00,83.2,68.0,29.59,SSE,159,0.0,0.0,61,0.00,,,0.00,weatherlink.com 1.10,2013-04-17 23:24:00,
2013-04-17 18:39:00,82.7,68.0,29.58,SSE,168,0.0,0.0,62,0.00,,,0.00,weatherlink.com 1.10,2013-04-17 23:39:00,
2013-04-17 18:54:00,82.5,68.0,29.57,SSE,147,0.0,0.0,62,0.00,,,0.00,weatherlink.com 1.10,2013-04-17 23:54:00,
2013-04-17 19:09:00,81.5,68.0,29.57,SE,130,0.0,0.0,64,0.00,,,0.00,weatherlink.com 1.10,2013-04-18 00:09:00,
2013-04-17 19:24:00,80.8,68.0,29.57,SE,132,0.0,0.0,66,0.00,,,0.00,weatherlink.com 1.10,2013-04-18 00:24:00,
2013-04-17 19:39:00,80.2,69.0,29.57,SE,129,0.0,0.0,68,0.00,,,0.00,weatherlink.com 1.10,2013-04-18 00:39:00,
2013-04-17 19:54:00,79.3,69.0,29.57,South,170,0.0,0.0,70,0.00,,,0.00,weatherlink.com 1.10,2013-04-18 00:54:00,
2013-04-17 20:09:00,78.7,69.0,29.56,SE,130,0.0,0.0,72,0.00,,,0.00,weatherlink.com 1.10,2013-04-18 01:09:00,
2013-04-17 20:24:00,78.3,69.0,29.56,SE,138,0.0,0.0,73,0.00,,,0.00,weatherlink.com 1.10,2013-04-18 01:24:00,
2013-04-17 20:54:00,77.5,69.0,29.57,SSE,168,0.0,0.0,75,0.00,,,0.00,weatherlink.com 1.10,2013-04-18 01:54:00,
2013-04-17 21:09:00,77.2,69.0,29.57,South,175,0.0,0.0,75,0.00,,,0.00,weatherlink.com 1.10,2013-04-18 02:09:00,
2013-04-17 21:24:00,77.0,69.0,29.58,SSE,163,0.0,0.0,76,0.00,,,0.00,weatherlink.com 1.10,2013-04-18 02:24:00,
2013-04-17 21:39:00,76.9,69.0,29.59,SE,145,0.0,0.0,76,0.00,,,0.00,weatherlink.com 1.10,2013-04-18 02:39:00,
2013-04-17 21:54:00,76.8,69.0,29.59,SSE,160,0.0,0.0,77,0.00,,,0.00,weatherlink.com 1.10,2013-04-18 02:54:00,
2013-04-17 22:09:00,76.8,69.0,29.60,SSE,156,0.0,0.0,77,0.00,,,0.00,weatherlink.com 1.10,2013-04-18 03:09:00,
2013-04-17 22:24:00,76.8,69.0,29.59,South,169,0.0,0.0,78,0.00,,,0.00,weatherlink.com 1.10,2013-04-18 03:24:00,
2013-04-17 22:39:00,76.9,70.0,29.59,SSE,149,0.0,0.0,78,0.00,,,0.00,weatherlink.com 1.10,2013-04-18 03:39:00,
2013-04-17 22:54:00,76.9,70.0,29.59,SSE,158,0.0,0.0,78,0.00,,,0.00,weatherlink.com 1.10,2013-04-18 03:54:00,
2013-04-17 23:09:00,76.9,70.0,29.59,SSE,157,0.0,0.0,78,0.00,,,0.00,weatherlink.com 1.10,2013-04-18 04:09:00,
2013-04-17 23:24:00,76.9,70.0,29.58,SSE,148,0.0,0.0,78,0.00,,,0.00,weatherlink.com 1.10,2013-04-18 04:24:00,
2013-04-17 23:39:00,76.7,69.0,29.58,South,169,0.0,0.0,78,0.00,,,0.00,weatherlink.com 1.10,2013-04-18 04:39:00,
2013-04-17 23:54:00,76.7,69.0,29.59,South,183,0.0,0.0,78,0.00,,,0.00,weatherlink.com 1.10,2013-04-18 04:54:00,